Weather History for Nenana, AK

Change the Weather History Date:

Sunday, June 30, 2013

  Actual Average Record
Temperature  
Mean Temperature 67 °F -  
Max Temperature 81 °F 74 °F 82 °F (1987)
Min Temperature 55 °F 48 °F 39 °F (2008)
Cooling Degree Days 2    
Growing Degree Days 17 (Base 50)    
Moisture  
Dew Point 53 °F    
Average Humidity 59    
Maximum Humidity 100    
Minimum Humidity 36    
Precipitation  
Precipitation 0.01 in - - ()
Sea Level Pressure  
Sea Level Pressure 29.77 in    
Wind  
Wind Speed 7 mph (SE)    
Max Wind Speed 18 mph    
Max Gust Speed 28 mph    
Visibility 7 miles    
Events Rain    
Averages and records for this station are not official NWS values.
T = Trace of Precipitation, MM = Missing Value Source: NWS Daily Summary

Daily Weather History Graph

Daily Weather History Graph

Search for Another Location

Airport:

Trip Planner

Search our weather history database for the weather conditions in past years. The results will help you decide how hot, cold, wet, or windy it might be!

Date:

Astronomy

Jun. 30, 2013 Rise Set
Actual Time 3:23 AM AKDT 12:35 AM AKDT
Civil Twilight Sun does not rise Sun does not rise
Nautical Twilight Sun does not rise Sun does not rise
Astronomical Twilight Sun does not rise Sun does not rise
Moon 12:58 AM AKDT (6/30) 3:45 PM AKDT (6/30)
Length of Visible Light 24h 00m
Length of Day
21h 12m
Last Quarter, 44% of the Moon is Illuminated
Jun 30
Last Quarter
Jul 7
New
Jul 15
First Quarter
Jul 22
Full
Jul 29
Last Quarter

Hourly Weather History & Observations

Time (AKDT) Temp. Dew Point Humidity Pressure Visibility Wind Dir Wind Speed Gust Speed Precip Events Conditions
12:53 AM 64.0 °F 55.9 °F 75% 29.85 in 5.0 mi ENE 4.6 mph - N/A   Haze
1:53 AM 64.0 °F 55.9 °F 75% 29.85 in 4.0 mi ENE 5.8 mph - N/A   Haze
2:53 AM 64.9 °F 54.0 °F 68% 29.84 in 3.0 mi East 5.8 mph - N/A   Haze
3:53 AM 64.9 °F 53.1 °F 65% 29.83 in 3.0 mi East 8.1 mph - N/A   Haze
4:53 AM 63.0 °F 53.1 °F 70% 29.82 in 3.0 mi East 6.9 mph - N/A   Haze
5:53 AM 64.9 °F 53.1 °F 65% 29.82 in 3.0 mi ENE 8.1 mph - N/A   Haze
6:53 AM 64.9 °F 53.1 °F 65% 29.81 in 4.0 mi East 9.2 mph - N/A   Haze
7:53 AM 64.0 °F 54.0 °F 70% 29.81 in 4.0 mi East 9.2 mph - N/A   Haze
8:53 AM 66.0 °F 55.0 °F 68% 29.81 in 4.0 mi East 5.8 mph - N/A   Haze
9:53 AM 70.0 °F 57.0 °F 63% 29.79 in 5.0 mi ENE 6.9 mph - N/A   Haze
10:53 AM 73.9 °F 57.9 °F 57% 29.77 in 5.0 mi Variable 3.5 mph - N/A   Haze
11:53 AM 77.0 °F 57.0 °F 50% 29.75 in 7.0 mi Variable 3.5 mph - N/A   Clear
12:53 PM 78.1 °F 55.9 °F 46% 29.73 in 10.0 mi Variable 3.5 mph - N/A   Scattered Clouds
1:53 PM 77.0 °F 51.1 °F 40% 29.72 in 9.0 mi South 11.5 mph 20.7 mph N/A   Mostly Cloudy
2:53 PM 80.1 °F 51.1 °F 36% 29.69 in 10.0 mi South 8.1 mph 16.1 mph N/A   Clear
3:53 PM 79.0 °F 50.0 °F 36% 29.67 in 10.0 mi South 12.7 mph 21.9 mph N/A   Clear
4:53 PM 79.0 °F 51.1 °F 38% 29.66 in 10.0 mi South 18.4 mph 27.6 mph N/A   Partly Cloudy
5:53 PM 75.0 °F 51.1 °F 43% 29.65 in 10.0 mi South 11.5 mph 21.9 mph N/A   Mostly Cloudy
6:53 PM 73.9 °F 50.0 °F 43% 29.63 in 10.0 mi South 12.7 mph 18.4 mph N/A   Mostly Cloudy
7:53 PM 73.0 °F 48.9 °F 42% 29.61 in 10.0 mi SSE 11.5 mph - N/A   Overcast
8:53 PM 72.0 °F 46.9 °F 41% 29.61 in 10.0 mi South 9.2 mph - N/A   Mostly Cloudy
9:53 PM 69.1 °F 48.0 °F 47% 29.62 in 10.0 mi South 8.1 mph - N/A   Partly Cloudy
10:53 PM 66.0 °F 46.9 °F 50% 29.64 in 2.0 mi WSW 6.9 mph - N/A   Haze
11:01 PM 66.2 °F 46.4 °F 49% 29.64 in 1.8 mi WSW 8.1 mph - N/A   Haze
11:53 PM 63.0 °F 48.0 °F 58% 29.65 in 1.5 mi Calm Calm - 0.01 in Rain Light Rain